KF4URA Weather Reports


Display with metric or nautical units.
time (UTC)temp
F
wind
direction
speed
MPH
gust
MPH
rain 1hr
in
rain 24hr
in
rain mn
in
humidity
%
barometer
mb
20260903100118 75 214 0.0 0.0 0.00 0.00 0.00 88 1013.7
20260903095133 76 214 0.0 0.0 0.00 0.00 0.00 88 1013.7
20260903094128 76 214 0.0 0.0 0.00 0.00 0.00 88 1013.6
20260903093057 76 214 0.0 0.0 0.00 0.00 0.00 87 1013.6
20260903092046 76 214 0.0 0.0 0.00 0.00 0.00 87 1013.6
20260903083526 76 214 0.0 0.0 0.00 0.00 0.00 88 1013.6
20260903082530 76 214 0.0 0.0 0.00 0.00 0.00 89 1013.6
20260903081552 76 214 0.0 0.0 0.00 0.00 0.00 89 1013.6
20260903080524 76 214 0.0 0.0 0.00 0.00 0.00 90 1013.6
20260903075509 75 214 0.0 0.0 0.00 0.00 0.00 90 1013.5
20260903073423 75 214 0.0 0.0 0.00 0.00 0.00 90 1013.6
20260903072431 75 214 0.0 0.0 0.00 0.00 0.00 90 1013.6
20260903065224 76 214 0.0 0.0 0.00 0.00 0.00 89 1013.8
20260903064244 76 214 0.0 0.0 0.00 0.00 0.00 88 1013.7
20260903063232 76 214 0.0 0.0 0.00 0.00 0.00 88 1013.8
20260903062215 77 214 0.0 0.0 0.00 0.00 0.00 87 1013.8
20260903061230 77 214 0.0 0.0 0.00 0.00 0.00 86 1013.9
20260903060206 77 214 0.0 0.0 0.00 0.00 0.00 85 1013.8
20260903055208 78 214 0.0 0.0 0.00 0.00 0.00 85 1013.8
20260903054211 78 214 0.0 0.0 0.00 0.00 0.00 85 1013.7
20260903052029 79 214 0.0 0.0 0.00 0.00 0.00 84 1013.5
20260903051015 79 214 0.0 0.0 0.00 0.00 0.00 83 1013.3
20260903050032 79 214 0.0 0.0 0.00 0.00 0.00 82 1013.3
20260903045010 79 214 0.0 0.0 0.00 0.00 0.00 82 1013.2
20260903043956 80 214 0.0 0.0 0.00 0.00 0.00 81 1013.1
20260903041742 80 214 0.0 0.0 0.00 0.00 0.00 81 1012.9
20260903040806 80 214 0.0 0.0 0.00 0.00 0.00 81 1012.9
20260903035753 80 214 0.0 0.0 0.00 0.00 0.00 81 1013.0
20260903034751 80 214 0.0 0.0 0.00 0.00 0.00 82 1013.0
20260903033743 80 214 0.0 0.0 0.00 0.00 0.00 82 1013.1
20260903031530 79 214 0.0 0.0 0.00 0.00 0.00 84 1013.3
20260903030520 79 214 0.0 0.0 0.00 0.00 0.00 84 1013.4
20260903025510 79 214 0.0 0.0 0.00 0.00 0.00 84 1013.6
20260903024439 80 214 0.0 0.0 0.00 0.00 0.00 84 1013.7
20260903023435 80 214 0.0 0.0 0.00 0.00 0.00 84 1013.6
20260903022426 80 214 0.0 0.0 0.00 0.00 0.00 84 1013.7
20260903020225 80 214 0.0 0.0 0.00 0.00 0.00 83 1013.7
20260903015210 80 214 0.0 0.0 0.00 0.00 0.00 83 1013.6
20260903013027 81 214 0.0 0.0 0.00 0.00 0.00 81 1013.6
20260903010855 82 214 0.0 0.0 0.00 0.00 0.00 79 1013.5
20260903005903 82 214 0.0 0.0 0.00 0.00 0.00 78 1013.4
20260903004902 83 214 0.0 0.0 0.00 0.00 0.00 76 1013.3
20260903003830 84 214 0.0 0.0 0.00 0.00 0.00 74 1013.3
20260903002813 85 214 0.0 0.0 0.00 0.00 0.00 72 1013.1
20260903001818 86 214 0.0 0.0 0.00 0.00 0.00 70 1013.1
20260903000800 86 214 0.0 0.0 0.00 0.00 0.00 68 1013.1
20260902235809 87 214 0.0 0.0 0.00 0.00 0.00 66 1013.0
20260902234811 87 214 0.0 0.0 0.00 0.00 0.00 65 1013.0
20260902233834 88 214 0.0 0.0 0.00 0.00 0.00 64 1013.0
20260902232854 88 214 0.0 0.0 0.00 0.00 0.00 63 1013.0
20260902231902 89 214 0.0 0.0 0.00 0.00 0.00 62 1013.0
20260902230857 89 214 0.0 2.0 0.00 0.00 0.00 61 1013.0
20260902225845 90 214 0.0 1.0 0.00 0.00 0.00 60 1012.9
20260902224832 90 215 0.0 2.0 0.00 0.00 0.00 58 1013.1
20260902222648 91 219 0.0 2.0 0.00 0.00 0.00 57 1013.1
20260902221649 91 221 0.0 2.0 0.00 0.00 0.00 56 1013.1
20260902220614 91 255 0.0 3.0 0.00 0.00 0.00 56 1013.1
20260902215608 91 270 1.0 4.0 0.00 0.00 0.00 55 1013.2
20260902213534 92 182 0.0 3.0 0.00 0.00 0.00 55 1013.2
20260902212517 92 179 1.0 6.0 0.00 0.00 0.00 55 1013.2
20260902210324 92 193 0.0 1.0 0.00 0.00 0.00 56 1013.1
20260902205331 92 273 1.0 5.0 0.00 0.00 0.00 55 1013.3
20260902204342 92 188 1.0 4.0 0.00 0.00 0.00 57 1013.5
20260902203329 93 269 1.0 8.0 0.00 0.00 0.00 55 1013.5
20260902202336 93 265 0.0 8.0 0.00 0.00 0.00 55 1013.6
20260902201325 93 184 1.0 5.0 0.00 0.00 0.00 54 1013.7
20260902195248 93 208 0.0 3.0 0.00 0.00 0.00 54 1013.8
20260902193109 92 207 0.0 3.0 0.00 0.00 0.00 58 1014.0
20260902190952 92 242 0.0 5.0 0.00 0.00 0.00 56 1014.3
20260902185942 93 287 0.0 4.0 0.00 0.00 0.00 55 1014.3
20260902184922 93 191 0.0 2.0 0.00 0.00 0.00 56 1014.3
20260902183937 93 191 0.0 3.0 0.00 0.00 0.00 56 1014.5
20260902182950 93 97 0.0 3.0 0.00 0.00 0.00 58 1014.6
20260902180843 92 293 0.0 3.0 0.00 0.00 0.00 57 1014.8
20260902175856 92 202 1.0 3.0 0.00 0.00 0.00 57 1014.9
20260902174830 92 183 0.0 3.0 0.00 0.00 0.00 59 1015.0
20260902172644 91 284 0.0 4.0 0.00 0.00 0.00 59 1015.3
20260902170503 91 223 0.0 3.0 0.00 0.00 0.00 61 1015.5
20260902165515 91 223 0.0 2.0 0.00 0.00 0.00 62 1015.5
20260902164527 91 250 0.0 3.0 0.00 0.00 0.00 62 1015.6
20260902161251 89 246 0.0 0.0 0.00 0.00 0.00 65 1015.7
20260902155058 89 191 0.0 0.0 0.00 0.00 0.00 67 1015.9
20260902154048 88 192 0.0 2.0 0.00 0.00 0.00 67 1015.9
20260902153041 87 192 0.0 2.0 0.00 0.00 0.00 69 1015.9
20260902150917 86 176 0.0 0.0 0.00 0.00 0.00 75 1016.0
20260902145900 84 176 0.0 2.0 0.00 0.00 0.00 74 1016.0
20260902144921 84 177 0.0 1.0 0.00 0.00 0.00 77 1016.0
20260902143853 83 175 0.0 1.0 0.00 0.00 0.00 77 1015.9
20260902142900 82 208 0.0 2.0 0.00 0.00 0.00 78 1015.9
20260902140723 81 275 0.0 1.0 0.00 0.00 0.00 82 1015.8
20260902135742 81 275 0.0 0.0 0.00 0.00 0.00 82 1015.8
20260902133543 79 186 0.0 1.0 0.00 0.00 0.00 83 1015.7
20260902132607 78 186 0.0 0.0 0.00 0.00 0.00 85 1015.8
20260902131540 77 186 0.0 0.0 0.00 0.00 0.00 87 1015.7
20260902130535 76 186 0.0 1.0 0.00 0.00 0.00 90 1015.8
20260902125517 75 186 0.0 1.0 0.00 0.00 0.00 93 1015.7
20260902124514 74 186 0.0 0.0 0.00 0.00 0.00 94 1015.6
20260902123500 73 186 0.0 0.0 0.00 0.00 0.00 95 1015.6
20260902122515 73 186 0.0 0.0 0.00 0.00 0.00 95 1015.6
20260902121514 72 186 0.0 0.0 0.00 0.00 0.00 96 1015.5
20260902120456 72 186 0.0 0.0 0.00 0.00 0.00 95 1015.6
20260902115446 72 186 0.0 0.0 0.00 0.00 0.00 95 1015.5
20260902114425 71 186 0.0 0.0 0.00 0.00 0.00 95 1015.5
20260902113427 71 186 0.0 1.0 0.00 0.00 0.00 95 1015.5
20260902112422 71 186 0.0 0.0 0.00 0.00 0.00 94 1015.4
20260902111436 71 186 0.0 0.0 0.00 0.00 0.00 94 1015.3
20260902110440 71 186 0.0 0.0 0.00 0.00 0.00 94 1015.2
20260902105456 71 186 0.0 0.0 0.00 0.00 0.00 94 1015.2
20260902104447 71 186 0.0 0.0 0.00 0.00 0.00 94 1015.0
20260902101251 71 186 0.0 0.0 0.00 0.00 0.00 94 1015.1